Total_Precipitation_Accumulation
1.37 1.27 1.25 1.25 1.24 1.14 1.19 1.17 1.25 1.45 1.23 1.09 0.87 0.70 0.63 0.57 0.54 0.50 0.50 0.57 0.74 0.89 1.05 1.12 1.24 1.61 2.12
1.77 1.61 1.48 1.33 1.12 0.88 0.80 0.85 0.89 1.20 1.20 1.13 1.04 0.94 0.92 0.92 0.82 0.69 0.58 0.51 0.48 0.51 0.58 0.73 0.84 0.94 1.02
1.09 1.00 1.02 1.15 1.26 1.18 1.04 0.95 0.88 1.15 1.06 1.04 1.08 1.05 0.96 0.90 0.92 0.98 0.97 0.77 0.56 0.48 0.49 0.53 0.70 0.88 0.98
0.60 0.53 0.50 0.54 0.64 0.68 0.65 0.57 0.49 0.50 0.57 0.57 0.65 0.69 0.78 0.81 0.73 0.70 0.78 0.96 1.07 0.99 0.80 0.73 0.69 0.74 0.75
0.43 0.33 0.28 0.25 0.27 0.29 0.33 0.39 0.44 0.50 0.41 0.33 0.27 0.23 0.28 0.43 0.59 0.72 0.74 0.78 0.88 1.02 1.09 1.03 0.99 1.01 1.13
0.17 0.12 0.10 0.12 0.16 0.24 0.35 0.48 0.49 0.33 0.34 0.31 0.27 0.21 0.16 0.16 0.28 0.41 0.55 0.64 0.71 0.74 0.87 1.06 1.06 1.03 1.26
0.10 0.07 0.07 0.08 0.18 0.26 0.27 0.33 0.24 0.12 0.26 0.35 0.30 0.31 0.22 0.24 0.25 0.23 0.34 0.44 0.50 0.58 0.67 0.76 0.94 1.15 1.15
0.17 0.17 0.21 0.25 0.32 0.45 0.34 0.28 0.16 0.09 0.17 0.28 0.16 0.22 0.20 0.22 0.32 0.30 0.34 0.35 0.37 0.43 0.52 0.65 0.75 0.84 1.00
0.29 0.41 0.49 0.51 0.41 0.42 0.51 0.54 0.40 0.14 0.09 0.16 0.11 0.15 0.16 0.17 0.20 0.29 0.32 0.38 0.46 0.53 0.48 0.50 0.63 0.74 0.71
0.11 0.19 0.28 0.33 0.39 0.30 0.28 0.57 0.54 0.62 0.29 0.47 0.27 0.24 0.53 0.16 0.15 0.22 0.25 0.30 0.33 0.40 0.65 0.75 0.69 0.70 0.66
0.06 0.11 0.18 0.28 0.33 0.35 0.37 0.55 0.84 0.68 0.18 0.87 1.06 0.52 0.91 0.35 0.08 0.11 0.14 0.20 0.28 0.34 0.45 0.63 0.87 0.89 0.85
0.07 0.08 0.15 0.22 0.28 0.36 0.49 0.61 0.63 0.74 0.36 0.62 1.48 0.71 1.07 0.86 0.33 0.13 0.16 0.18 0.24 0.30 0.37 0.58 0.76 0.89 1.14
0.10 0.09 0.11 0.16 0.31 0.51 0.65 0.74 0.86 0.82 0.76 0.83 1.07 0.90 1.23 1.25 0.64 0.25 0.31 0.28 0.24 0.27 0.37 0.52 0.64 0.72 0.87
0.19 0.14 0.19 0.29 0.43 0.50 0.67 0.65 0.89 0.72 0.72 0.90 0.90 1.16 1.49 0.94 0.87 0.63 0.30 0.49 0.40 0.38 0.46 0.45 0.53 0.70 0.84
0.39 0.43 0.40 0.40 0.40 0.39 0.62 0.81 0.97 0.62 0.54 0.58 0.79 0.90 0.94 0.96 1.13 0.62 0.44 0.38 0.33 0.51 0.60 0.54 0.45 0.66 0.77
0.54 0.55 0.63 0.62 0.56 0.56 0.62 0.77 0.75 0.50 0.58 0.64 0.71 1.03 0.96 0.80 0.76 0.69 0.65 0.44 0.32 0.33 0.45 0.85 0.47 0.33 0.39
0.71 0.71 0.78 0.82 0.83 0.74 0.57 0.68 0.65 0.53 0.56 0.69 0.93 1.34 1.52 0.71 0.40 0.45 0.85 0.70 0.47 0.45 0.44 0.56 0.59 0.35 0.33